Location: Eboldshausen
(51.7766°N, 10.0050°E)
Time: 16:34:51
(UTC+00:00)

Cosmos 1140 Rocket - Pass Details

Date: 15 November 2025
Orbit: 740 x 761 km, 74.1° (Epoch: 12 December)

Event Time Altitude Azimuth Distance (km) Brightness Sun altitude
Rises 17:17:50 0° 209° (SSW) 3,200 7.3 -16.6°
Reaches altitude 10° 17:20:12 10° 211° (SSW) 2,276 6.5 -16.9°
Maximum altitude 17:25:21 73° 296° (WNW) 789 3.6 -17.7°
Enters shadow 17:30:25 11° 22° (NNE) 2,240 5.6 -18.5°
